Погода в Сочи

Погода в Сочи : погода сейчас, прогноз погоды и архив. Всё, что Вы хотите узнать о погоде в Сочи!

Поиск расширенной информации на нашем сайте:

Другие новости

Новости СМИ2

Главная страница сайта

Новости сайта

03.07.2017

Напоминаем, что на нашем специализированном сайте Метеоцентр.Азия вы можете получить высокодетализированные автоматические прогнозы погоды по пунктам России, СНГ и мира в авиационном формате (включающие направление и скорость ветра, видимость, явления погоды, количество и форму облачности, нижнюю и верхнюю границу облачности).


Погода в Сочи - сегодня

Время (UTC), дата Ветер
(°,м/с) 
Видим.   Явления Облачность Т
(°С)
Тd
(°С)
f(%) Тe
(°С)
Pmin
(гПа)
dP
(гПа)
Po
(мм)
O2
(г/м3)
Тmin Tmax R s Состояние
почвы
21 11.11.18 070 (В) 4000 м    9/6 840 м средняя 
[Sc|Ac trans]
+10.1 +8.2 88 +10  1023.8  0.7  767  296           
00 12.11.18 тихо ()   4000 м    8/5 960 м средняя 
[Sc|Ac trans]
+10.3 +8 86 +10  1024  0.2  767  296           
03 12.11.18 070 (В) 4000 м  {гроза}  10/6 1000 м кучево-дожд., средняя 
[Cb cap|Ac und]
+10.3 +8.2 87 +10  1024.3  0.3  767  296  +9         
06 12.11.18 080 (В) 20000 м  {гроза}  9/4 600 м кучево-дожд., средняя 
[Cb cap|Ac trans]
+11.9 +8.2 78 +13  1024.9  0.6  767  295           
09 12.11.18 080 (В) 10 км  в посл. час ливневой дождь  10/6 1500 м кучево-дожд., средняя 
[Cb cap|Ac und]
+12.9 +11 88 +15  1025.2  0.3  768  293           
12 12.11.18 070 (В) 10 км  {ливн. осадки}  6/6 600 м 
[Cu Sc]
+15.2 +12.1 82 +19  1024.7  -0.5  767  291           
15 12.11.18 250 (З) 4000 м  слаб. ливневой дождь, в посл. час гроза  10/10 600 м кучево-дожд. 
[Cb cap]
+13.5 +11.4 87 +18  1024.8  0.1  767  292    +15.9     
18 12.11.18 080 (В) 4000 м  слаб. ливневой дождь{гроза}  10/10 540 м кучево-дожд. 
[Cb cap]
+12.1 +11 93 +14  1024.9  0.1  767  294           
21 12.11.18 280 (З) 4000 м  {ливн. осадки}  10/10 450 м кучево-дожд. 
[Cb cap]
+12 +10.6 91 +12  1025.3  0.4  768  294           
00 13.11.18 300 (СЗ) 4000 м  {ливн. осадки}  10/10 420 м кучево-дожд. 
[Cb cap]
+10.9 +8.5 85 +11  1025.6  0.3  768  296           
03 13.11.18 360 (С) 4000 м    10/10 660 м 
[Sc]
+10 +8 87 +10  1025.7  0.1  768  297  +10       
06 13.11.18 070 (В) 10 км    9/9 1200 м 
[Sc]
+10.1 +8.5 90 +11  1025.8  0.1  768  297  +9.2         
12 13.11.18 320 (СЗ) 3{10}  10 км  слаб. ливневой дождь  10/10 300 м кучево-дожд. 
[Cb cap]
+8.2 +7.4 95 +8  1025.3  0.7  768  299           
15 13.11.18 350 (С) 4000 м  в посл. час ливневой дождь  10/10 240 м кучево-дожд. 
[Cb cap]
+7.6 +6.5 93 +7  1025.9  0.6  768  300         
18 13.11.18 350 (С) 4000 м  {ливн. осадки}  9/8 840 м средняя 
[Sc|Ac trans]
+7.1 +6.4 95 +8  1025.6  -0.4  768  300           
21 13.11.18 тихо ()   4000 м  слаб. ливневой дождь  10/10 930 м кучево-дожд. 
[Cb cap]
+7.5 +6.8 95 +8  1024.6  -0.9  767  300           
00 14.11.18 300 (СЗ) 4000 м  слаб. ливневой дождь  10/10 870 м кучево-дожд. 
[Cb cap]
+7.7 +7.6 99 +9  1023.4  -1.2  766  299           
03 14.11.18 040 (СВ) 4000 м  слаб. ливневой дождь  9/8 600 м кучево-дожд., средняя 
[Cb cap|Ac trans]
+8 +7.6 97 +9  1022.9  -0.5  766  299  +6.4       
06 14.11.18 070 (В) 20000 м  слаб. ливневой дождь  10/8 1200 м кучево-дожд., средняя 
[Cb cap|Ac und]
+8.7 +7.7 93 +9  1022.4  -0.5  765  298           
09 14.11.18 тихо ()   20000 м  {ливн. осадки}  10/8 960 м кучево-дожд., средняя 
[Cb cap|Ac und]
+11.1 +8 81 +11  1021.1  -1.3  764  295           
12 14.11.18 тихо ()   10 км  {ливн. осадки}  10/6 1500 м кучево-дожд., средняя 
[Cb cap|Ac und]
+11.2 +8.5 83 +11  1019.8  -1.3  764  294           
18 14.11.18 040 (СВ) 4000 м  слаб. ливневой дождь  10/8 1500 м кучево-дожд., средняя 
[Cb cap|Ac und]
+9.5 +7.8 89 +11  1017.8  -1.4  762  295           
21 14.11.18 080 (В) 4000 м  {ливн. осадки}  10/5 1500 м кучево-дожд., средняя 
[Cb cap|Ac und]
+9.5 +7.8 89 +9  1015.8  -2  761  295           
00 15.11.18 050 (СВ) 4000 м  слаб. ливневой дождь  10/8 1020 м кучево-дожд., средняя 
[Cb cap|Ac und]
+9.3 +7.8 90 +9  1015.1  -0.7  760  295           
03 15.11.18 070 (В) 4000 м  слаб. ливневой дождь  10/8 1000 м кучево-дожд., средняя 
[Cb cap|Ac und]
+9 +8.2 95 +9  1014.8  -0.3  760  295  +7.8       
Время (UTC), дата Ветер
(°,м/с) 
Видим.   Явления Облачность Т
(°С)
Тd
(°С)
f(%) Тe
(°С)
Pmin
(гПа)
dP
(гПа)
Po
(мм)
O2
(г/м3)
Тmin Tmax R s Состояние
почвы

Для получения пояснительной информации подведите курсор к названию столбца.

ПОГОДА в Сочи - архив

Всё, что Вы хотите узнать о погоде в Сочи - удобно и подробно!

Выберите нужную дату (начиная с 1 января 2015* года) и нажмите кнопку "Найти".
Будут отображены архивные сводки погоды по пункту Сочи, начиная с указанной даты.


Отображать данные в формате CSV (для использования в таблицах Excel)


Внимание! Наш архив погоды предназначен исключительно для личного некоммерческого использования в познавательных целях. Если Вам необходимы официальные справки о состоянии погоды (для производственных, юридических, коммерческих и т.п. целей), обращайтесь в органы Росгидромета.

*Примечание: данная дата относится к архиву по метеостанциям СССР (Россия, СНГ, Балтия).
Архив по метеостанциям Зарубежной Европы и Азии (кроме Китая) хранится 10 дней, по другим регионам земного шара (Китай, Африка, Америка, Австралия, Океания) - 1 день.

Сочи - район местоположения метеостанции


Название, широта, долгота, высота метеостанции:
Сочи (Адлер) 43.4°ш. 39.9°д. 13 м над ур. моря [Российская Федерация]

Дополнительная информация

В oтличие oт бoльшинства пoгoдных сайтoв мы публикуем пoдрoбную метеoинфoрмацию в детальнoм прoфессиoнальнoм фoрмате.

Характеристики температуры и влажнoсти вoздуха измеряются на высoте 2 м в тени вдали oт зданий и деревьев.
Скoрoсть ветра измеряется на высoте 10 м (на урoвне рoста челoвека скoрoсть ветра ниже в 1.5-2 раза). Если метеoстанция нахoдится в гoрoде или в лесу, тo скoрoсть ветра занижена на 2-4 м/с пo сравнению с oткрытым местoм. Скoрoсть ветра над акватoриями крупных рек и oзёр, а также на вершинах хoлмoв на 2-5 м/с выше, чем в oбычных услoвиях.
Атмoсфернoе давление в разных тoчках местнoсти мoжет значительнo oтличаться oт давления на метеoстанции, в зависимoсти oт услoвий рельефа (при пoдъёме на 10 м давление пoнижается примернo на 1 мм рт.ст.).